Location: Christchurch
(43.5330°S, 172.6330°E)
Time: 16:26:07
(UTC+13:00)

Meteor 1-26 Rocket - Pass Details

Date: 24 January 2019
Orbit: 823 x 912 km, 81.3° (Epoch: 16 February)

Event Time Altitude Azimuth Distance (km) Brightness Sun altitude
Exits shadow 22:55:59 23° 16° (NNE) 1,795 5.4 -16.7°
Maximum altitude 22:59:31 56° 85° (E) 1,049 4.4 -17.1°
Drops below altitude 10° 23:05:08 10° 161° (SSE) 2,533 7.1 -17.7°
Sets 23:07:35 0° 165° (SSE) 3,463 7.9 -18.0°
